EW3029 Weather Reports


time (UTC)temp
C
wind
direction
speed
KPH
gust
KPH
rain 1hr
cm
rain 24hr
cm
rain mn
cm
humidity
%
barometer
mb
20260906203024 38 223 1.6 11.3 0.00 0.00 0.00 32 1011.3
20260906201522 39 274 1.6 9.7 0.00 0.00 0.00 31 1011.4
20260906200019 39 235 1.6 9.7 0.00 0.00 0.00 31 1011.8
20260906194515 39 146 0.0 4.8 0.00 0.00 0.00 32 1012.0
20260906193013 38 178 3.2 14.5 0.00 0.00 0.00 33 1012.2
20260906191511 38 189 3.2 14.5 0.00 0.00 0.00 34 1012.3
20260906190012 37 219 3.2 9.7 0.00 0.00 0.00 34 1012.6
20260906184509 38 163 0.0 8.0 0.00 0.00 0.00 34 1012.7
20260906183006 38 206 4.8 16.1 0.00 0.00 0.00 35 1012.9
20260906181509 37 37 3.2 9.7 0.00 0.00 0.00 35 1013.2
20260906180006 37 217 1.6 12.9 0.00 0.00 0.00 36 1013.3
20260906174501 37 208 1.6 6.4 0.00 0.00 0.00 36 1013.6
20260906173057 37 221 0.0 8.0 0.00 0.00 0.00 39 1014.0
20260906171555 36 212 0.0 11.3 0.00 0.00 0.00 39 1014.2
20260906170055 35 230 1.6 9.7 0.00 0.00 0.00 42 1014.4
20260906164554 35 218 0.0 6.4 0.00 0.00 0.00 42 1014.7
20260906163052 35 218 0.0 6.4 0.00 0.00 0.00 42 1014.7
20260906161551 36 222 0.0 4.8 0.00 0.00 0.00 43 1014.7
20260906160046 35 189 0.0 8.0 0.00 0.00 0.00 42 1014.6
20260906154547 34 205 0.0 6.4 0.00 0.00 0.00 45 1014.6
20260906153045 34 214 0.0 3.2 0.00 0.00 0.00 49 1014.4
20260906151538 33 226 1.6 4.8 0.00 0.00 0.00 48 1014.4
20260906150046 33 239 1.6 6.4 0.00 0.00 0.00 48 1014.4
20260906144531 32 226 0.0 3.2 0.00 0.00 0.00 51 1014.4
20260906143026 31 196 0.0 3.2 0.00 0.00 0.00 55 1014.4
20260906141521 30 196 0.0 3.2 0.00 0.00 0.00 59 1014.4
20260906140030 28 196 0.0 3.2 0.00 0.00 0.00 64 1014.3
20260906134513 26 195 0.0 0.0 0.00 0.00 0.00 75 1014.1
20260906133022 25 195 0.0 0.0 0.00 0.00 0.00 80 1014.1
20260906131509 24 195 0.0 0.0 0.00 0.00 0.00 81 1014.0
20260906130018 24 195 0.0 0.0 0.00 0.00 0.00 82 1013.9
20260906124504 23 195 0.0 0.0 0.00 0.00 0.00 83 1013.7
20260906123002 23 195 0.0 0.0 0.00 0.00 0.00 81 1013.6
20260906121501 23 195 0.0 0.0 0.00 0.00 0.00 82 1013.3
20260906120135 23 195 0.0 0.0 0.00 0.00 0.00 80 1013.3
20260906114614 23 195 0.0 0.0 0.00 0.00 0.00 79 1013.2
20260906113055 23 195 0.0 0.0 0.00 0.00 0.00 79 1012.9
20260906111603 23 195 0.0 0.0 0.00 0.00 0.00 79 1012.8
20260906110053 23 195 0.0 0.0 0.00 0.00 0.00 79 1012.7
20260906104551 23 195 0.0 0.0 0.00 0.00 0.00 79 1012.7
20260906103052 23 195 0.0 0.0 0.00 0.00 0.00 78 1012.5
20260906101548 23 195 0.0 0.0 0.00 0.00 0.00 78 1012.5
20260906100057 24 195 0.0 0.0 0.00 0.00 0.00 77 1012.4
20260906094550 23 195 0.0 0.0 0.00 0.00 0.00 76 1012.4
20260906093044 24 195 0.0 0.0 0.00 0.00 0.00 75 1012.3
20260906091543 24 195 0.0 0.0 0.00 0.00 0.00 74 1012.3
20260906090042 24 195 0.0 0.0 0.00 0.00 0.00 73 1012.2
20260906084541 24 195 0.0 0.0 0.00 0.00 0.00 73 1012.3
20260906083041 24 195 0.0 0.0 0.00 0.00 0.00 75 1012.1
20260906081541 24 195 0.0 0.0 0.00 0.00 0.00 75 1012.0
20260906080038 24 195 0.0 0.0 0.00 0.00 0.00 74 1012.0
20260906074538 25 195 0.0 0.0 0.00 0.00 0.00 73 1012.1
20260906073033 25 195 0.0 0.0 0.00 0.00 0.00 73 1012.1
20260906071532 25 195 0.0 0.0 0.00 0.00 0.00 71 1012.1
20260906070030 25 195 0.0 0.0 0.00 0.00 0.00 70 1012.2
20260906064527 25 195 0.0 0.0 0.00 0.00 0.00 67 1012.1
20260906063030 26 195 0.0 0.0 0.00 0.00 0.00 66 1012.1
20260906061524 26 195 0.0 0.0 0.00 0.00 0.00 63 1012.1
20260906060023 26 195 0.0 0.0 0.00 0.00 0.00 64 1012.2
20260906054537 27 195 0.0 0.0 0.00 0.00 0.00 64 1012.1
20260906053020 27 195 0.0 0.0 0.00 0.00 0.00 61 1012.0
20260906051524 26 195 0.0 3.2 0.00 0.00 0.00 64 1011.9
20260906050014 26 195 0.0 0.0 0.00 0.00 0.00 66 1011.8
20260906044512 26 195 0.0 0.0 0.00 0.00 0.00 66 1011.7
20260906043011 26 195 0.0 0.0 0.00 0.00 0.00 65 1011.7
20260906041510 27 195 0.0 0.0 0.00 0.00 0.00 65 1011.9
20260906040009 27 195 0.0 0.0 0.00 0.00 0.00 65 1011.9
20260906034509 27 195 0.0 0.0 0.00 0.00 0.00 61 1011.9
20260906033009 28 195 0.0 0.0 0.00 0.00 0.00 59 1011.7
20260906031523 28 195 0.0 0.0 0.00 0.00 0.00 57 1011.7
20260906030011 29 195 0.0 0.0 0.00 0.00 0.00 55 1011.6
20260906024526 30 195 0.0 0.0 0.00 0.00 0.00 53 1011.5
20260906023007 30 195 0.0 1.6 0.00 0.00 0.00 51 1011.3
20260906021505 31 195 0.0 0.0 0.00 0.00 0.00 48 1011.1
20260906020005 32 195 0.0 0.0 0.00 0.00 0.00 44 1011.0
20260906014512 32 195 0.0 0.0 0.00 0.00 0.00 42 1010.9
20260906013003 33 195 0.0 0.0 0.00 0.00 0.00 41 1010.6
20260906011503 33 197 0.0 0.0 0.00 0.00 0.00 40 1010.5
20260906010002 35 197 0.0 3.2 0.00 0.00 0.00 38 1010.4
20260906004502 35 217 1.6 4.8 0.00 0.00 0.00 37 1010.2
20260906003001 35 236 1.6 6.4 0.00 0.00 0.00 36 1010.2
20260906001600 36 211 3.2 9.7 0.00 0.00 0.00 34 1010.1
20260906001501 36 226 3.2 9.7 0.00 0.00 0.00 35 1010.1
20260906000107 36 203 0.0 4.8 0.00 0.00 0.00 35 1010.1
20260905234606 36 213 1.6 8.0 0.00 0.00 0.00 34 1010.0
20260905233059 37 195 3.2 9.7 0.00 0.00 0.00 31 1009.8
20260905231559 37 221 1.6 11.3 0.00 0.00 0.00 31 1009.8
20260905230058 37 239 4.8 12.9 0.00 0.00 0.00 32 1009.8
20260905224557 38 143 1.6 6.4 0.00 0.00 0.00 31 1009.8
20260905223057 38 10 1.6 9.7 0.00 0.00 0.00 31 1009.6
20260905221556 38 231 1.6 14.5 0.00 0.00 0.00 32 1009.7
20260905220053 38 217 3.2 12.9 0.00 0.00 0.00 31 1009.9
20260905214552 38 187 4.8 9.7 0.00 0.00 0.00 32 1010.1
20260905213058 38 195 4.8 17.7 0.00 0.00 0.00 33 1010.2
20260905211603 38 212 6.4 14.5 0.00 0.00 0.00 33 1010.4
20260905210057 37 242 3.2 17.7 0.00 0.00 0.00 33 1010.6
20260905204545 38 190 1.6 12.9 0.00 0.00 0.00 33 1010.8